Regional Weather Roundup
Issued by NWS Green Bay, WI

Home | Current Version | Previous Version | Graphics & Text | Print | Product List | Glossary Off
Versions: 1 2 3 4 5 6 7 8 9 10 11 12 13 14 15 16 17 18 19 20 21 22 23 24 25 26 27 28 29 30 31 32 33 34 35 36 37 38 39 40 41 42 43 44 45 46 47 48 49 50

000
ASUS43 KGRB 270759
RWRGRB

NORTH-CENTRAL AND NORTHEAST WISCONSIN REGIONAL WEATHER ROUNDUP
NATIONAL WEATHER SERVICE GREEN BAY WI
200 AM CST FRI FEB 27 2015

WIZ005-009-010>012-018-019-270900-
NORTH CENTRAL WISCONSIN

CITY           SKY/WX    TMP DP  RH WIND       PRES   REMARKS
IRONWOOD       CLEAR     -9 -22  54 SW8       30.32S WCI -26
MANITOWISH WTR NOT AVBL
ARBOR VITAE    NOT AVBL
EAGLE RIVER    NOT AVBL
LAND O LAKES   NOT AVBL
RHINELANDER    CLEAR    -12 -18  74 W6        30.31S WCI -26
PHILLIPS       CLEAR    -16 -22  77 CALM      30.34S
ANTIGO         NOT AVBL
TOMAHAWK       NOT AVBL
MERRILL        NOT AVBL
$$

WIZ013-073-270900-
NORTHEAST WISCONSIN

CITY           SKY/WX    TMP DP  RH WIND       PRES   REMARKS
IRON MOUNTAIN  NOT AVBL
MARINETTE      CLEAR     -8 -11  84 CALM      30.39S
$$

WIZ017-030-035>037-045-270900-
CENTRAL WISCONSIN

CITY           SKY/WX    TMP DP  RH WIND       PRES   REMARKS
MEDFORD        NOT AVBL
WAUSAU         CLEAR     -5 -13  68 NW5       30.38R WCI -16
MOSINEE        NOT AVBL
MARSHFIELD     CLEAR     -5 -14  65 NW6       30.39S WCI -18
WISC RAPIDS    CLEAR     -8 -14  74 CALM      30.44R
STEVENS POINT  NOT AVBL
WAUPACA        NOT AVBL
SHAWANO        NOT AVBL
CLINTONVILLE   CLEAR     -2  -9  71 CALM      30.43R
$$

WIZ038-039-048-051-270900-
FOX VALLEY

CITY           SKY/WX    TMP DP  RH WIND       PRES   REMARKS
NWS GREEN BAY  CLEAR      0  -8  69 W7        30.43R WCI -13
APPLETON       NOT AVBL
OSHKOSH        CLEAR      0  -9  65 W6        30.42R WCI -12
FOND DU LAC    CLEAR     -1 -10  65 CALM      30.43R
$$

WIZ022-050-052-270900-
EAST CENTRAL WISCONSIN

CITY           SKY/WX    TMP DP  RH WIND       PRES   REMARKS
STURGEON BAY   CLEAR     -6 -11  77 CALM      30.41S
MANITOWOC      NOT AVBL
SHEBOYGAN      CLEAR      1  -8  66 W8        30.42R WCI -13
$$

LMZ563-521-522-541>543-270900-
LAKESHORE

STATION/POSITION TIME  TEMP    WIND        PRES    VSBY  WAVE
                       AIR SEA DIR/SP/G                  HT/PER
                 (UTC) (F)     (DEG/KT/KT) (MB)    (MI)  (FT/S)
SHEBOYGAN LKSHOR 0700    5     280/ 12/ 14 1031.8R
KEWAUNEE LKSHORE 0700          290/  2/  4   N/A
NORTHPORT PIER   0700    0     260/  3/  6 1029.1S
SISTER BAY LKSHO 0700   -3        CALM       N/A
CHAMBERS ISLAND  0700   -1     220/  4/  4 1029.1S
MENOMINEE LKSHOR 0700    2     260/  6     1030.2R
$$



USA.gov is the U.S. government's official web portal to all federal, state and local government web resources and services.